Location: Melbourne
(37.8170°S, 144.9670°E)
Time: 09:03:20
(UTC+10:00)

deb Explorer IX - All Passes

Search period start: 26 July 2014 00:00
Search period end: 05 August 2014 00:00
Orbit: 554 x 1223 km, 38.8° (Epoch: 22 July)

Date Brightness Start Highest point End Pass type
(mag) Time Alt. Az. Time Alt. Az. Time Alt. Az.
26 Jul - 02:05:12 10° N 02:07:35 13° NE 02:09:50 10° ENE night (unlit)
26 Jul - 03:50:31 10° NW 03:55:34 43° NNE 03:59:55 10° E visible
26 Jul - 05:38:57 10° W 05:43:47 86° S 05:48:04 10° E visible
26 Jul - 07:27:43 10° W 07:32:06 87° S 07:36:16 10° E daylight
26 Jul - 09:16:17 10° W 09:20:07 35° NNW 09:24:01 10° NE daylight
27 Jul - 02:01:37 10° N 02:05:26 18° NNE 02:08:52 10° ENE night (unlit)
27 Jul - 03:48:11 10° NW 03:53:30 53° NNE 03:58:01 10° E visible
27 Jul - 05:36:54 10° W 05:41:48 81° S 05:46:06 10° E visible
27 Jul - 07:25:42 10° W 07:30:07 83° NNW 07:34:17 10° ENE daylight
27 Jul - 09:14:27 10° W 09:18:01 27° NNW 09:21:36 10° NNE daylight
28 Jul - 01:58:34 10° NNW 02:03:17 24° NNE 02:07:25 10° E night (unlit)
28 Jul - 03:45:56 10° WNW 03:51:27 65° NNE 03:56:05 10° E visible
28 Jul - 05:34:52 10° W 05:39:49 78° S 05:44:08 10° E visible
28 Jul - 07:23:40 10° W 07:28:06 72° NNW 07:32:15 10° ENE daylight
28 Jul - 09:12:45 10° W 09:15:53 21° NNW 09:19:01 10° NNE daylight
29 Jul - 01:55:47 10° NNW 02:01:08 30° NNE 02:05:44 10° E night (unlit)
29 Jul - 03:43:45 10° WNW 03:49:24 76° NNE 03:54:08 10° E visible
29 Jul - 05:32:49 10° W 05:37:50 78° S 05:42:11 10° E visible
29 Jul - 07:21:39 10° W 07:26:04 59° NNW 07:30:10 10° ENE daylight
29 Jul - 09:11:16 10° WNW 09:13:43 15° NW 09:16:09 10° N daylight
30 Jul - 00:08:49 10° NNE 00:10:54 12° NE 00:12:55 10° ENE night (unlit)
30 Jul - 01:53:10 10° NW 01:59:00 38° NNE 02:03:56 10° E night (unlit)
30 Jul - 03:41:36 10° WNW 03:47:22 86° NNE 03:52:09 10° E visible
30 Jul - 05:30:46 10° W 05:35:51 81° S 05:40:14 10° E visible
30 Jul - 07:19:39 10° W 07:24:00 47° NNW 07:28:01 10° NE daylight
30 Jul - 09:10:31 10° NW 09:11:31 11° NW 09:12:30 10° NNW daylight
31 Jul - 00:04:42 10° N 00:08:41 16° NE 00:12:21 10° ENE night (unlit)
31 Jul - 01:50:41 10° NW 01:56:53 48° NNE 02:02:03 10° E night (unlit)
31 Jul - 03:39:29 10° W 03:45:20 87° S 03:50:11 10° E visible
31 Jul - 05:28:42 10° W 05:33:51 87° S 05:38:16 10° E visible
31 Jul - 07:17:40 10° W 07:21:54 37° NNW 07:25:46 10° NE daylight
01 Aug - 00:01:22 10° NNW 00:06:28 22° NE 00:11:02 10° E night (unlit)
01 Aug - 01:48:19 10° NW 01:54:46 58° NNE 02:00:07 10° E night (unlit)
01 Aug - 03:37:23 10° W 03:43:19 82° S 03:48:13 10° E visible
01 Aug - 05:26:37 10° W 05:31:50 85° NNW 05:36:16 10° ENE visible
01 Aug - 07:15:46 10° W 07:19:45 29° NNW 07:23:25 10° NNE daylight
01 Aug - 23:58:23 10° NNW 00:04:15 28° NNE 00:09:26 10° E night (unlit)
02 Aug - 01:46:01 10° WNW 01:52:40 68° NNE 01:58:09 10° E night (unlit)
02 Aug - 03:35:17 10° W 03:41:18 80° S 03:46:15 10° E visible
02 Aug - 05:24:31 10° W 05:29:47 75° NNW 05:34:15 10° ENE visible
02 Aug - 07:13:57 10° W 07:17:34 23° NW 07:20:54 10° NNE daylight
02 Aug - 23:55:36 10° NNW 00:02:03 35° NNE 00:07:40 10° E night (unlit)
03 Aug - 01:43:46 10° WNW 01:50:34 78° NNE 01:56:10 10° E night (unlit)
03 Aug - 03:33:11 10° W 03:39:16 80° S 03:44:17 10° E visible
03 Aug - 05:22:26 10° W 05:27:43 63° NNW 05:32:11 10° ENE visible
03 Aug - 07:12:18 10° WNW 07:15:20 17° NW 07:18:10 10° N daylight
03 Aug - 22:08:00 10° N 22:11:38 14° NE 22:15:06 10° ENE night (unlit)
03 Aug - 23:52:58 10° NW 23:59:51 43° NNE 00:05:47 10° E night (unlit)
04 Aug - 01:41:34 10° WNW 01:48:29 86° NNE 01:54:10 10° E night (unlit)
04 Aug - 03:31:04 10° W 03:37:15 83° S 03:42:19 10° E visible
04 Aug - 05:20:21 10° W 05:25:37 53° NNW 05:30:03 10° NE visible
04 Aug - 07:11:02 10° WNW 07:13:04 13° NW 07:15:01 10° NNW daylight
04 Aug - 22:04:18 10° N 22:09:20 19° NE 22:14:03 10° E night (unlit)
04 Aug - 23:50:28 10° NW 23:57:40 52° NNE 00:00:00 36° ENE night (unlit)
